972  
ASUS43 KGLD 270908  
RWRGLD  
 
GOODLAND FORECAST AREA HOURLY WEATHER ROUNDUP  
NATIONAL WEATHER SERVICE GOODLAND KS  
300 AM MDT SAT MAY 27 2017  
   
..OFFICIAL OBSERVATIONS
 
 
 
CITY SKY/WX TMP DP RH WIND PRES REMARKS
 
GOODLAND KS CLOUDY 52 50 93 E8 29.90R THUNDER  
HILL CITY KS TSTM 60 56 86 NE25G31 29.83F  
IMPERIAL NEB CLOUDY 55 51 86 E6 29.88S  
MCCOOK NEB CLOUDY 58 55 90 NE7 29.87R  
AKRON CO N/A 50 48 93 NW12 29.99R  
BURLINGTON CO CLOUDY 54 50 86 NE3 29.92R  
LIMON CO CLOUDY 49 48 97 N17 30.01R  

 
   
..UNOFFICIAL OBSERVATIONS
 
 
 
CITY SKY/WX TMP DP RH WIND PRES REMARKS
 
LENORA KS N/A 57 32 39 MISG N/A  
NORTON KS LGT RAIN 57 54 88 E13G20 29.82F  
SHARON SPRINGS N/A 56 51 85 NE9 N/A  
TRENTON NEB N/A 55 32 41 CALM N/A  

 
 
 
CLICK HERE TO GO TO PREVIOUS BULLETINS.

The Nexlab KS Page
The Nexlab CO Page
The Nexlab NE Page Main Text Page